Location: Azul
(36.7830°S, 59.8500°W)
Time: 01:16:26
(UTC-03:00)

STARS - Visible Passes

Search period start: 23 October 2021 00:00
Search period end: 02 November 2021 00:00
Orbit: 624 x 638 km, 98.2° (Epoch: 22 October)

Date Brightness Start Highest point End Pass type
(mag) Time Alt. Az. Time Alt. Az. Time Alt. Az.
23 Oct ? 21:22:22 17° SE 21:22:22 17° SE 21:24:22 10° SSE visible
23 Oct ? 22:59:45 20° SW 22:59:45 20° SW 23:01:23 10° SSW visible
24 Oct ? 21:43:10 25° SE 21:43:10 25° SE 21:45:38 10° S visible
24 Oct ? 23:20:33 14° SW 23:20:33 14° SW 23:21:26 10° SW visible
25 Oct ? 22:03:58 33° SSE 22:03:58 33° SSE 22:06:36 10° S visible
26 Oct ? 22:24:45 35° SSW 22:24:45 35° SSW 22:27:20 10° SSW visible
27 Oct ? 21:08:10 13° ESE 21:08:10 13° ESE 21:09:50 10° SE visible
27 Oct ? 22:45:33 29° SW 22:45:33 29° SW 22:47:52 10° SSW visible
28 Oct ? 21:28:57 20° SE 21:28:57 20° SE 21:31:31 10° SSE visible
28 Oct ? 23:06:21 20° SW 23:06:21 20° SW 23:08:10 10° SW visible
29 Oct ? 21:49:46 30° SE 21:49:46 30° SE 21:52:41 10° S visible
29 Oct ? 23:27:08 13° WSW 23:27:08 13° WSW 23:28:03 10° SW visible
30 Oct ? 22:10:33 40° SSE 22:10:33 40° SSE 22:13:34 10° S visible
31 Oct ? 22:31:20 40° SSW 22:31:20 40° SSW 22:34:14 10° SSW visible
01 Nov ? 21:14:45 15° ESE 21:14:45 15° ESE 21:17:09 10° SSE visible
01 Nov ? 22:52:08 30° SW 22:52:08 30° SW 22:54:42 10° SSW visible
